Regional Weather Roundup
Issued by NWS

Home | Current Version | Previous Version | Graphics & Text | Print | Product List | Glossary On
Versions: 1 2 3 4 5 6 7 8 9 10 11 12 13 14 15 16 17 18 19 20 21 22 23 24 25 26 27 28 29 30 31 32 33 34 35 36 37 38 39 40 41 42 43 44 45 46 47 48 49 50
000
ASUS45 KCYS 310610
RWRWY

WYOMING REGIONAL WEATHER ROUNDUP
NATIONAL WEATHER SERVICE CHEYENNE WY
1200 AM MDT MON AUG 31 2015

NOTE:  "FAIR" INDICATES FEW OR NO CLOUDS BELOW 12,000 FEET
WITH NO SIGNIFICANT WEATHER AND/OR OBSTRUCTIONS TO VISIBILITY.

WYZ001-310700-
YELLOWSTONE NATIONAL PARK

CITY           SKY/WX    TMP DP  RH WIND       PRES   REMARKS
LK YELLOWSTONE   N/A     46  28  49 VRB5      30.18R
6HR MIN TEMP:  42; 6HR MAX TEMP:  64;

W YELLOWSTONE  NOT AVBL

$$
WYZ002>013-054>058-071-098>099-310700-
NORTHERN WYOMING

CITY           SKY/WX    TMP DP  RH WIND       PRES   REMARKS
JACKSON        FAIR      57  28  33 SW7       30.13R
CODY           FAIR      70  34  26 W8        29.93R
GREYBULL       FAIR      78  30  17 NW9       29.84R
6HR MIN TEMP:  75; 6HR MAX TEMP:  90;

WORLAND        FAIR      69  46  43 CALM      29.85R
6HR MIN TEMP:  68; 6HR MAX TEMP:  88;

SHERIDAN       FAIR      74  41  30 W12       29.83R
6HR MIN TEMP:  67; 6HR MAX TEMP:  79;

BUFFALO        FAIR      73  45  36 NW9       29.90S
6HR MIN TEMP:  71; 6HR MAX TEMP:  78; 6HR PCP: TRACE;

GILLETTE       FAIR      70  51  51 SW8       29.82F
6HR MIN TEMP:  67; 6HR MAX TEMP:  82;

HULETT         FAIR      77  43  29 S16       29.82S
NEWCASTLE      FAIR      72  43  35 SE5       29.88R

$$
WYZ014>020-022>026-101>103-310700-
CENTRAL WYOMING

CITY           SKY/WX    TMP DP  RH WIND       PRES   REMARKS
BIG PINEY      FAIR      57  37  47 NW14      30.16R
6HR MIN TEMP:  54; 6HR MAX TEMP:  78;

PINEDALE       FAIR      54  39  58 NW13      30.18R
DUBOIS         FAIR      55  34  44 NW16      30.12S
LANDER         FAIR      69  40  34 SW10      29.97R
6HR MIN TEMP:  65; 6HR MAX TEMP:  78; 6HR PCP: TRACE;

RIVERTON       FAIR      67  40  37 W6        29.98R
6HR MIN TEMP:  67; 6HR MAX TEMP:  77; 6HR PCP: TRACE;

CASPER         FAIR      71  43  36 SW20      29.97S
6HR MIN TEMP:  70; 6HR MAX TEMP:  82;

DOUGLAS        FAIR      76  43  30 W7        29.96R
6HR MIN TEMP:  69; 6HR MAX TEMP:  87;


$$
WYZ021-027>030-104>119-310700-
SOUTHERN WYOMING

CITY           SKY/WX    TMP DP  RH WIND       PRES   REMARKS
EVANSTON       FAIR      56  45  66 S8        30.17R
6HR MIN TEMP:  55; 6HR MAX TEMP:  78;

KEMMERER       FAIR      55  43  62 S8        30.17F
FORT BRIDGER     N/A     52  52 100 S7        30.19R
ROCK SPRINGS   FAIR      55  51  86 SE12      30.16F
6HR MIN TEMP:  55; 6HR MAX TEMP:  71; 6HR PCP:  0.01;

DIXON          MOCLDY    66  46  47 SW9G21    30.19R
RAWLINS        FAIR      64  42  44 SW3       30.15R
6HR MIN TEMP:  64; 6HR MAX TEMP:  72; 6HR PCP: TRACE;

SARATOGA       MOCLDY    61  48  63 SE13      30.18S
LARAMIE        FAIR      63  44  50 SW10G23   30.17F
6HR MIN TEMP:  61; 6HR MAX TEMP:  79; 6HR PCP: TRACE;

CHEYENNE       FAIR      67  46  47 W6        30.07F
6HR MIN TEMP:  67; 6HR MAX TEMP:  85;

TORRINGTON     FAIR      79  45  29 W10       29.89S
6HR MIN TEMP:  78; 6HR MAX TEMP:  92; 6HR PCP: TRACE;

PINE BLUFFS    FAIR      70  43  37 NW6       30.03F

$$


USA.gov is the U.S. government's official web portal to all federal, state and local government web resources and services.